This demonstration page uses our WeatherBlox Daily Observations layout. Learn more.

Left ArrowRight Arrow

39.92423, -83.80882

Hourly Observations for February 21, 2016

Temp ( °F °C ) Dew Point ( °F °C ) Humidity (%) Winds ( mph kmh ) Pressure ( in mb ) Visibility ( mi km ) Precip ( " mm )
12:56 am 00:56 Partly Cloudy 44 6.6 38 3.3 80 80 N N/A 29.96 1015 10 16 N/A
1:56 am 01:56 Clear 42 5.5 37 2.7 82 82 S 5 7 29.96 1015 10 16 N/A
2:56 am 02:56 Mostly Cloudy 44 6.6 40 4.4 86 86 NNW 7 11 29.94 1014 10 16 N/A
3:56 am 03:56 Mostly Cloudy 48 8.8 39 3.8 71 71 NNW 6 9 29.93 1014 10 16 N/A
4:56 am 04:56 Cloudy 49 9.4 38 3.3 66 66 N 8 13 29.93 1014 10 16 N/A
5:56 am 05:56 Cloudy 47 8.3 36 2.2 66 66 NE 7 11 29.94 1014 10 16 N/A
6:56 am 06:56 Cloudy 45 7.2 35 1.6 68 68 NE 7 11 29.95 1014 10 16 N/A
7:56 am 07:56 Mostly Cloudy 42 5.5 35 1.6 76 76 NE 8 13 29.96 1015 10 16 N/A
8:56 am 08:56 Sunny 45 7.2 35 1.6 68 68 NNE 9 15 29.98 1015 10 16 N/A
9:56 am 09:56 Sunny 48 8.8 36 2.2 64 64 NNE 10 17 29.99 1016 10 16 N/A
10:56 am 10:56 Sunny 52 11.1 37 2.7 57 57 NNE 10 17 29.98 1015 10 16 N/A
11:56 am 11:56 Sunny 54 12.2 37 2.7 53 53 NNE 8 13 29.97 1015 10 16 N/A
12:56 pm 12:56 Mostly Sunny 57 13.8 38 3.3 49 49 NE 9 15 29.95 1014 10 16 N/A
1:56 pm 13:56 Sunny 58 14.4 38 3.3 48 48 NNE 9 15 29.95 1014 10 16 N/A
2:56 pm 14:56 Sunny 57 13.8 37 2.7 47 47 N 13 20 29.96 1015 10 16 N/A
3:56 pm 15:56 Sunny 56 13.3 37 2.7 49 49 N 12 19 29.97 1015 10 16 N/A
4:56 pm 16:56 Sunny 54 12.2 37 2.7 53 53 NNE 12 19 29.98 1015 10 16 N/A
5:56 pm 17:56 Sunny 49 9.4 36 2.2 61 61 NNE 16 26 30.01 1016 10 16 N/A
6:56 pm 18:56 Mostly Clear 44 6.6 35 1.6 71 71 NNE 9 15 30.05 1018 10 16 N/A
7:56 pm 19:56 Partly Cloudy 42 5.5 35 1.6 76 76 NNE 12 19 30.07 1018 10 16 N/A
8:56 pm 20:56 Clear 40 4.4 34 1.1 79 79 N 13 20 30.09 1019 10 16 N/A
9:56 pm 21:56 Clear 37 2.7 33 0.5 86 86 NNE 14 22 30.11 1020 10 16 N/A
10:56 pm 22:56 Clear 35 1.6 32 undefined 89 89 NNE 9 15 30.11 1020 10 16 N/A
11:56 pm 23:56 Clear 33 0.5 31 -0.5 93 93 NNE 7 11 30.11 1020 10 16 N/A

Powered by AerisWeather